Blountville, TN

11:41 AM EST on December 05, 2016 (GMT -0500)
Tri-Cities Regional Tennessee / Virginia

Weather History for KTRI - December, 2004

Change the Weather History Date:

Friday, December 31, 2004

  Actual Average Record
Temperature  
Mean Temperature 46 °F 35 °F  
Max Temperature 57 °F 45 °F 74 °F (1951)
Min Temperature 36 °F 25 °F 5 °F (1983)
Degree Days  
Heating Degree Days 18 30  
Month to date heating degree days 844  
Since 1 July heating degree days 1729  
Cooling Degree Days 0 0  
Month to date cooling degree days 0  
Year to date cooling degree days 981  
Moisture  
Dew Point 40 °F    
Average Humidity 79    
Maximum Humidity 97    
Minimum Humidity 58    
Precipitation  
Precipitation 0.00 in 0.10 in 1.51 in (1975)
Month to date precipitation 3.37  
Year to date precipitation 41.01  
Snow  
Snow 0.00 in 0.10 in - ()
Month to date snowfall 2.4  
Since 1 July snowfall 2.7  
Snow Depth -    
Sea Level Pressure  
Sea Level Pressure 30.37 in    
Wind  
Wind Speed 0 mph (WNW)    
Max Wind Speed 5 mph    
Max Gust Speed -    
Visibility 8 miles    
Events Rain    
T = Trace of Precipitation, MM = Missing Value Source: NWS Daily Summary

Daily Weather History Graph

Daily Weather History Graph

Search for Another Location

Airport or City:

Trip Planner

Search our weather history database for the weather conditions in past years. The results will help you decide how hot, cold, wet, or windy it might be!

Date:

Astronomy

Dec. 31, 2004 Rise Set
Actual Time 7:41 AM EST 5:24 PM EST
Civil Twilight 7:12 AM EST 5:53 PM EST
Nautical Twilight 6:40 AM EST 6:25 PM EST
Astronomical Twilight 6:09 AM EST 6:56 PM EST
Moon 10:08 PM EST (12/31) 11:01 AM EST (12/31)
Length of Visible Light 10h 40m
Length of Day
9h 43m
Waning Gibbous, 78% of the Moon is Illuminated
Dec 31
Waning Gibbous
Jan 3
Last Quarter
Jan 10
New
Jan 17
First Quarter
Jan 25
Full

Hourly Weather History & Observations

Time (EST) Temp. Dew Point Humidity Pressure Visibility Wind Dir Wind Speed Gust Speed Precip Events Conditions
12:53 AM 37.9 °F 36.0 °F 93% 30.33 in 6.0 mi Calm Calm - N/A   Scattered Clouds
1:53 AM 39.0 °F 37.0 °F 93% 30.33 in 6.0 mi Calm Calm - N/A   Scattered Clouds
2:53 AM 39.9 °F 37.0 °F 89% 30.35 in 6.0 mi Calm Calm - N/A   Scattered Clouds
3:53 AM 39.9 °F 37.9 °F 93% 30.35 in 6.0 mi Calm Calm - N/A   Mostly Cloudy
4:53 AM 37.9 °F 36.0 °F 93% 30.35 in 5.0 mi Calm Calm - N/A   Mostly Cloudy
5:53 AM 37.0 °F 36.0 °F 96% 30.35 in 5.0 mi Calm Calm - N/A   Mostly Cloudy
6:53 AM 36.0 °F 35.1 °F 97% 30.38 in 6.0 mi Calm Calm - N/A   Scattered Clouds
7:53 AM 36.0 °F 35.1 °F 97% 30.38 in 10.0 mi Calm Calm - N/A   Mostly Cloudy
8:53 AM 41.0 °F 39.0 °F 93% 30.39 in 10.0 mi Calm Calm - N/A   Mostly Cloudy
9:53 AM 46.9 °F 41.0 °F 80% 30.40 in 10.0 mi Calm Calm - N/A   Overcast
10:53 AM 52.0 °F 42.1 °F 69% 30.41 in 10.0 mi Calm Calm - N/A   Overcast
11:53 AM 55.0 °F 42.1 °F 62% 30.39 in 10.0 mi Calm Calm - N/A   Overcast
12:53 PM 55.9 °F 42.1 °F 60% 30.36 in 10.0 mi Calm Calm - N/A   Overcast
1:53 PM 57.0 °F 43.0 °F 59% 30.35 in 10.0 mi NW 4.6 mph - N/A   Overcast
2:53 PM 57.9 °F 43.0 °F 58% 30.34 in 10.0 mi West 3.5 mph - N/A   Mostly Cloudy
3:53 PM 57.9 °F 43.0 °F 58% 30.34 in 10.0 mi West 4.6 mph - N/A   Mostly Cloudy
4:53 PM 55.9 °F 44.1 °F 64% 30.35 in 10.0 mi NNW 4.6 mph - N/A   Overcast
5:53 PM 54.0 °F 43.0 °F 66% 30.37 in 10.0 mi Calm Calm - N/A   Overcast
6:53 PM 53.1 °F 44.1 °F 71% 30.38 in 9.0 mi Calm Calm - 0.00 in Rain Light Rain
7:53 PM 52.0 °F 44.1 °F 74% 30.40 in 9.0 mi Calm Calm - 0.00 in   Overcast
8:53 PM 51.1 °F 45.0 °F 80% 30.40 in 9.0 mi Calm Calm - N/A   Overcast
9:53 PM 48.9 °F 44.1 °F 83% 30.39 in 8.0 mi Calm Calm - N/A   Scattered Clouds
10:53 PM 45.0 °F 41.0 °F 86% 30.40 in 7.0 mi Calm Calm - N/A   Scattered Clouds
11:53 PM 43.0 °F 39.9 °F 89% 30.41 in 10.0 mi Calm Calm - N/A   Mostly Cloudy